TimeCDT,TemperatureF,Dew PointF,Humidity,Sea Level PressureIn,VisibilityMPH,Wind Direction,Wind SpeedMPH,Gust SpeedMPH,PrecipitationIn,Events,Conditions,WindDirDegrees,DateUTC
12:53 AM,42.1,32.0,67,29.99,10.0,North,12.7,18.4,N/A,,Overcast,350,2012-10-29 05:53:00
1:53 AM,41.0,30.9,67,29.99,10.0,NNW,10.4,-,N/A,,Overcast,340,2012-10-29 06:53:00
2:53 AM,39.9,30.9,70,29.98,10.0,NNW,10.4,-,N/A,,Overcast,330,2012-10-29 07:53:00
3:33 AM,39.2,30.2,70,29.96,10.0,North,10.4,19.6,N/A,,Overcast,350,2012-10-29 08:33:00
3:53 AM,37.9,30.0,73,29.98,10.0,North,10.4,18.4,N/A,,Mostly Cloudy,360,2012-10-29 08:53:00
4:14 AM,37.4,30.2,75,29.97,10.0,NNW,9.2,21.9,N/A,,Scattered Clouds,340,2012-10-29 09:14:00
4:53 AM,37.9,30.0,73,29.98,10.0,North,13.8,21.9,N/A,,Overcast,350,2012-10-29 09:53:00
5:53 AM,36.0,28.9,76,29.99,10.0,NNW,8.1,-,N/A,,Mostly Cloudy,330,2012-10-29 10:53:00
6:53 AM,35.1,28.9,78,29.99,10.0,NW,11.5,17.3,N/A,,Partly Cloudy,320,2012-10-29 11:53:00
7:53 AM,35.1,28.9,78,30.00,10.0,NNW,10.4,21.9,N/A,,Mostly Cloudy,340,2012-10-29 12:53:00
8:37 AM,35.6,28.4,75,29.98,10.0,North,15.0,24.2,N/A,,Overcast,350,2012-10-29 13:37:00
8:53 AM,35.1,28.9,78,30.00,10.0,NNW,13.8,-,N/A,,Overcast,330,2012-10-29 13:53:00
9:44 AM,37.4,30.2,75,29.99,10.0,NNW,12.7,20.7,N/A,,Overcast,340,2012-10-29 14:44:00
9:53 AM,37.9,30.0,73,30.00,10.0,NNW,11.5,19.6,N/A,,Overcast,330,2012-10-29 14:53:00
10:53 AM,41.0,30.0,65,29.99,10.0,NW,13.8,19.6,N/A,,Mostly Cloudy,320,2012-10-29 15:53:00
11:42 AM,41.0,30.2,65,29.97,10.0,NW,15.0,27.6,N/A,,Overcast,320,2012-10-29 16:42:00
11:53 AM,42.1,30.0,62,29.97,10.0,NW,17.3,25.3,N/A,,Mostly Cloudy,320,2012-10-29 16:53:00
12:53 PM,46.0,30.0,54,29.94,10.0,NW,16.1,27.6,N/A,,Partly Cloudy,310,2012-10-29 17:53:00
1:53 PM,45.0,28.0,52,29.92,10.0,NW,17.3,25.3,N/A,,Overcast,320,2012-10-29 18:53:00
2:53 PM,46.9,28.0,48,29.90,10.0,NW,15.0,27.6,N/A,,Mostly Cloudy,310,2012-10-29 19:53:00
3:53 PM,46.9,27.0,46,29.89,10.0,NW,19.6,28.8,N/A,,Overcast,310,2012-10-29 20:53:00
4:53 PM,46.0,25.0,44,29.88,10.0,NW,12.7,26.5,N/A,,Mostly Cloudy,310,2012-10-29 21:53:00
5:53 PM,45.0,17.1,33,29.88,10.0,NW,11.5,21.9,N/A,,Clear,310,2012-10-29 22:53:00
6:53 PM,44.1,16.0,32,29.87,10.0,NW,12.7,20.7,N/A,,Partly Cloudy,310,2012-10-29 23:53:00
7:53 PM,44.1,16.0,32,29.85,10.0,WNW,11.5,24.2,N/A,,Clear,300,2012-10-30 00:53:00
8:53 PM,44.1,19.9,38,29.84,10.0,NW,16.1,25.3,N/A,,Clear,310,2012-10-30 01:53:00
9:53 PM,43.0,25.0,49,29.82,10.0,NW,13.8,21.9,N/A,,Clear,310,2012-10-30 02:53:00
10:53 PM,43.0,26.1,51,29.80,10.0,NW,11.5,23.0,N/A,,Partly Cloudy,310,2012-10-30 03:53:00
11:53 PM,42.1,27.0,55,29.78,10.0,NW,11.5,21.9,N/A,,Partly Cloudy,320,2012-10-30 04:53:00